Chihuahua, Mexico

10:18 AM MST on December 13, 2017 (GMT -0700)
Gen Div P A Roberto Fierro

Weather History for MMCU - October, 2012

Change the Weather History Date:

Wednesday, October 24, 2012

  Actual Average Record
Temperature  
Mean Temperature 76 °F -  
Max Temperature 92 °F 75 °F 92 °F (2012)
Min Temperature 55 °F 46 °F 35 °F (2007)
Cooling Degree Days 10    
Growing Degree Days 26 (Base 50)    
Moisture  
Dew Point 30 °F    
Average Humidity 20    
Maximum Humidity 50    
Minimum Humidity 5    
Precipitation  
Precipitation 0.00 in - - ()
Sea Level Pressure  
Sea Level Pressure 29.83 in    
Wind  
Wind Speed 6 mph ()    
Max Wind Speed 14 mph    
Max Gust Speed -    
Visibility 8.2 miles    
Events      
Averages and records for this station are not official NWS values.
T = Trace of Precipitation, MM = Missing Value Source: Averaged Metar Reports

Daily Weather History Graph

Daily Weather History Graph

Search for Another Location

Airport or City:

Trip Planner

Search our weather history database for the weather conditions in past years. The results will help you decide how hot, cold, wet, or windy it might be!

Date:

Astronomy

Oct. 24, 2012 Rise Set
Actual Time 7:10 AM MDT 6:24 PM MDT
Civil Twilight 6:46 AM MDT 6:48 PM MDT
Nautical Twilight 6:18 AM MDT 7:16 PM MDT
Astronomical Twilight 5:51 AM MDT 7:43 PM MDT
Moon 3:22 PM MDT (10/24) 2:31 AM MDT (10/24)
Length of Visible Light 12h 02m
Length of Day
11h 13m
Waxing Gibbous, 76% of the Moon is Illuminated
Oct 24
Waxing Gibbous
Oct 29
Full
Nov 6
Last Quarter
Nov 13
New
Nov 20
First Quarter

Hourly Weather History & Observations

Time (MDT) Temp. Dew Point Humidity Pressure Visibility Wind Dir Wind Speed Gust Speed Precip Events Conditions
2:45 AM 66 °F 37 °F 23% 29.68 in 1 mi WSW 6.7 mph - -  
5:40 AM 51.8 °F 32.0 °F 47% 29.75 in 10.0 mi SSE 6.9 mph - N/A   Clear
5:45 AM 69 °F 34 °F 16% 29.71 in 1 mi South 4.5 mph - -  
6:40 AM 50.0 °F 32.0 °F 50% 30.03 in 10.0 mi SE 8.1 mph - N/A   Clear
7:42 AM 55.4 °F 32.0 °F 41% 30.04 in 10.0 mi SSW 8.1 mph - N/A   Clear
8:44 AM 64.4 °F 33.8 °F 32% 29.84 in 10.0 mi SSW 5.8 mph - N/A   Clear
8:45 AM 71 °F 36 °F 17% 29.74 in 6 mi WSW 2.2 mph - -  
9:41 AM 73.4 °F 37.4 °F 27% 30.06 in 10.0 mi SSW 5.8 mph - N/A   Clear
10:40 AM 78.8 °F 41.0 °F 26% 30.04 in 10.0 mi Calm Calm - N/A   Clear
11:42 AM 84.2 °F 33.8 °F 16% 29.77 in 10.0 mi SSW 12.7 mph - N/A   Clear
11:45 AM 86 °F 35 °F 8% 29.69 in 6 mi SSW 4.5 mph - -  
12:42 PM 87.8 °F 26.6 °F 11% 29.98 in 10.0 mi South 13.8 mph - N/A   Clear
1:40 PM 89.6 °F 24.8 °F 10% 29.95 in 10.0 mi South 8.1 mph - N/A   Clear
2:40 PM 91.4 °F 26.6 °F 10% 29.67 in 10.0 mi SSE 8.1 mph - N/A   Clear
2:45 PM 92 °F 33 °F 6% 29.55 in 6 mi SSW 8.9 mph - -  
3:40 PM 91.4 °F 23.0 °F 8% 29.89 in 10.0 mi SSW 4.6 mph - N/A   Clear
4:40 PM 91.4 °F 24.8 °F 9% 29.88 in 10.0 mi SE 4.6 mph - N/A   Clear
5:45 PM 90 °F 27 °F 5% 29.49 in 6 mi SSW 6.7 mph - -  
6:40 PM 80.6 °F 28.4 °F 15% 29.91 in 10.0 mi West 5.8 mph - N/A   Clear
7:40 PM 66.2 °F 26.6 °F 23% 29.94 in 10.0 mi North 4.6 mph - N/A   Clear
8:40 PM 60.8 °F 23.0 °F 23% 29.78 in 10.0 mi SSE 9.2 mph - N/A   Clear
8:44 PM 67 °F 29 °F 13% 29.52 in 1 mi ENE 2.2 mph - -  
9:40 PM 64.4 °F 26.6 °F 24% 29.99 in 10.0 mi West 8.1 mph - N/A   Clear
10:40 PM 55.4 °F 21.2 °F 26% 30.00 in 10.0 mi South 10.4 mph - N/A   Clear